When you browse on this site, cookies collect data to enhance your experience and personalize the content and advertising you see.
Visit our Privacy Policy to learn more. By continuing to use the site, you agree to this use of cookies and data.
  • En España
  • Lista de países
  • Para 7 días
  • Temperatura del agua
  • Mapa Satelital
  • El tiempo en el mapa
  • Informadores
  • user-avatar
    Iniciar sesión

    Tiempo cada hora Campobasso

    Hoy, 21 Junio, Viernes

    Tiempo Temperatura Precipitaciones Viento Presión Humedad
    00:00 +19°C° 0 mm 1 mps 700 mmHg 81%
    01:00 +18°C° 0 mm 1 mps 700 mmHg 81%
    02:00 +18°C° 0 mm 1 mps 700 mmHg 80%
    03:00 +18°C° 0 mm 1 mps 700 mmHg 79%
    04:00 +18°C° 0 mm 1 mps 700 mmHg 77%
    05:00 +19°C° 0 mm 1 mps 700 mmHg 73%
    06:00 +21°C° 0 mm 1 mps 700 mmHg 69%
    07:00 +23°C° 0 mm 1 mps 701 mmHg 65%
    08:00 +25°C° 0 mm 1 mps 701 mmHg 58%
    09:00 +26°C° 0 mm 1 mps 702 mmHg 51%
    10:00 +28°C° 0 mm 1 mps 702 mmHg 44%
    11:00 +29°C° 0 mm 1 mps 702 mmHg 41%
    12:00 +30°C° 0 mm 1 mps 702 mmHg 39%
    13:00 +31°C° 0 mm 2 mps 702 mmHg 36%
    14:00 +30°C° 0 mm 2 mps 702 mmHg 38%
    15:00 +30°C° 0 mm 2 mps 702 mmHg 40%
    16:00 +30°C° 0 mm 2 mps 702 mmHg 42%
    17:00 +28°C° 0 mm 2 mps 701 mmHg 50%
    18:00 +26°C° 0 mm 1 mps 701 mmHg 57%
    19:00 +25°C° 0 mm 1 mps 701 mmHg 64%
    20:00 +23°C° 0 mm 1 mps 700 mmHg 65%
    21:00 +22°C° 0 mm 1 mps 700 mmHg 67%
    22:00 +21°C° 0 mm 1 mps 700 mmHg 68%
    23:00 +21°C° 0 mm 1 mps 700 mmHg 66%

    Mañana, 22 Junio, Sábado

    Tiempo Temperatura Precipitaciones Viento Presión Humedad
    00:00 +20°C° 0 mm 1 mps 700 mmHg 63%
    01:00 +20°C° 0 mm 1 mps 700 mmHg 61%
    02:00 +20°C° 0 mm 1 mps 700 mmHg 58%
    03:00 +20°C° 0 mm 1 mps 700 mmHg 54%
    04:00 +19°C° 0 mm 1 mps 699 mmHg 50%
    05:00 +20°C° 0 mm 2 mps 700 mmHg 51%
    06:00 +21°C° 0 mm 2 mps 700 mmHg 52%
    07:00 +23°C° 0 mm 2 mps 701 mmHg 52%
    08:00 +24°C° 0 mm 2 mps 701 mmHg 52%
    09:00 +25°C° 0 mm 2 mps 701 mmHg 52%
    10:00 +26°C° 0 mm 2 mps 701 mmHg 52%
    11:00 +27°C° 0 mm 2 mps 701 mmHg 49%
    12:00 +29°C° 0 mm 3 mps 701 mmHg 46%
    13:00 +30°C° 0 mm 3 mps 701 mmHg 43%
    14:00 +30°C° 0 mm 4 mps 701 mmHg 44%
    15:00 +29°C° 0 mm 4 mps 700 mmHg 45%
    16:00 +28°C° 0 mm 5 mps 700 mmHg 46%
    17:00 +27°C° 0 mm 4 mps 700 mmHg 51%
    18:00 +25°C° 0 mm 3 mps 699 mmHg 56%
    19:00 +23°C° 0 mm 2 mps 699 mmHg 61%
    20:00 +21°C° 0 mm 2 mps 699 mmHg 62%
    21:00 +20°C° 0 mm 3 mps 699 mmHg 63%
    22:00 +19°C° 0 mm 3 mps 698 mmHg 64%
    23:00 +19°C° 0 mm 3 mps 698 mmHg 67%

    Pasado mañana, 23 Junio, Domingo

    Tiempo Temperatura Precipitaciones Viento Presión Humedad
    00:00 +18°C° 0 mm 2 mps 698 mmHg 69%
    01:00 +18°C° 0 mm 2 mps 698 mmHg 71%
    02:00 +18°C° 0 mm 2 mps 698 mmHg 73%
    03:00 +18°C° 0 mm 2 mps 698 mmHg 76%
    04:00 +18°C° 0 mm 1 mps 698 mmHg 78%
    05:00 +20°C° 0 mm 1 mps 698 mmHg 75%
    06:00 +21°C° 0 mm 1 mps 699 mmHg 72%
    07:00 +22°C° 0 mm 1 mps 699 mmHg 68%
    08:00 +24°C° 0 mm 1 mps 700 mmHg 62%
    09:00 +26°C° 0 mm 1 mps 700 mmHg 56%
    10:00 +27°C° 0 mm 2 mps 700 mmHg 49%
    11:00 +28°C° 0 mm 2 mps 701 mmHg 46%
    12:00 +28°C° 0 mm 2 mps 701 mmHg 43%
    13:00 +29°C° 0 mm 3 mps 701 mmHg 40%
    14:00 +29°C° 0 mm 3 mps 701 mmHg 43%
    15:00 +28°C° 0 mm 2 mps 701 mmHg 46%
    16:00 +28°C° 0 mm 2 mps 700 mmHg 49%
    17:00 +26°C° 0.1 mm 2 mps 700 mmHg 57%
    18:00 +25°C° 0.1 mm 1 mps 700 mmHg 66%
    19:00 +23°C° 0.1 mm 1 mps 700 mmHg 75%
    20:00 +22°C° 0 mm 1 mps 700 mmHg 79%
    21:00 +21°C° 0 mm 1 mps 700 mmHg 83%
    22:00 +17°C° 0 mm 0 mps 700 mmHg 87%
    23:00 +17°C° 0 mm 0 mps 700 mmHg 87%

    24 Junio, Lunes

    Tiempo Temperatura Precipitaciones Viento Presión Humedad
    00:00 +19°C° 0 mm 1 mps 700 mmHg 87%
    01:00 +19°C° 0 mm 1 mps 701 mmHg 87%
    02:00 +19°C° 0 mm 1 mps 700 mmHg 87%
    03:00 +19°C° 0 mm 1 mps 700 mmHg 86%
    04:00 +18°C° 0 mm 1 mps 700 mmHg 86%
    05:00 +20°C° 0 mm 1 mps 701 mmHg 79%
    06:00 +22°C° 0 mm 1 mps 701 mmHg 73%
    07:00 +23°C° 0 mm 1 mps 702 mmHg 67%
    08:00 +24°C° 0 mm 2 mps 702 mmHg 63%
    09:00 +26°C° 0 mm 3 mps 702 mmHg 58%
    10:00 +27°C° 0 mm 4 mps 703 mmHg 54%
    11:00 +27°C° 0 mm 4 mps 703 mmHg 52%
    12:00 +28°C° 0 mm 4 mps 703 mmHg 51%
    13:00 +28°C° 0 mm 4 mps 703 mmHg 49%
    14:00 +28°C° 0.1 mm 4 mps 703 mmHg 53%
    15:00 +27°C° 0.1 mm 4 mps 702 mmHg 57%
    16:00 +27°C° 0.1 mm 5 mps 702 mmHg 61%
    17:00 +25°C° 0.1 mm 4 mps 702 mmHg 66%
    18:00 +24°C° 0.1 mm 3 mps 702 mmHg 71%
    19:00 +23°C° 0.1 mm 2 mps 702 mmHg 77%
    20:00 +21°C° 0 mm 2 mps 702 mmHg 81%
    21:00 +19°C° 0 mm 2 mps 702 mmHg 86%
    22:00 +19°C° 0 mm 1 mps 702 mmHg 90%
    23:00 +19°C° 0 mm 1 mps 702 mmHg 90%

    25 Junio, Martes

    Tiempo Temperatura Precipitaciones Viento Presión Humedad
    00:00 +19°C° 0 mm 1 mps 702 mmHg 89%
    01:00 +19°C° 0 mm 1 mps 702 mmHg 89%
    02:00 +18°C° 0 mm 1 mps 702 mmHg 88%
    03:00 +18°C° 0 mm 1 mps 702 mmHg 87%
    04:00 +18°C° 0 mm 1 mps 701 mmHg 85%
    05:00 +19°C° 0 mm 2 mps 702 mmHg 81%
    06:00 +20°C° 0 mm 2 mps 702 mmHg 76%
    07:00 +23°C° 0 mm 2 mps 703 mmHg 72%
    08:00 +24°C° 0 mm 3 mps 703 mmHg 67%
    09:00 +26°C° 0 mm 4 mps 704 mmHg 62%
    10:00 +27°C° 0 mm 4 mps 704 mmHg 57%
    11:00 +28°C° 0 mm 5 mps 704 mmHg 56%
    12:00 +28°C° 0 mm 5 mps 704 mmHg 55%
    13:00 +29°C° 0 mm 5 mps 704 mmHg 54%
    14:00 +29°C° 0 mm 5 mps 704 mmHg 54%
    15:00 +28°C° 0 mm 5 mps 704 mmHg 54%
    16:00 +28°C° 0 mm 5 mps 704 mmHg 54%
    17:00 +27°C° 0 mm 4 mps 704 mmHg 61%
    18:00 +25°C° 0 mm 3 mps 704 mmHg 67%
    19:00 +24°C° 0 mm 2 mps 703 mmHg 74%
    20:00 +23°C° 0 mm 2 mps 703 mmHg 78%
    21:00 +21°C° 0 mm 1 mps 703 mmHg 82%
    22:00 +20°C° 0 mm 1 mps 703 mmHg 86%
    23:00 +20°C° 0 mm 1 mps 703 mmHg 86%

    26 Junio, Miércoles

    Tiempo Temperatura Precipitaciones Viento Presión Humedad
    00:00 +20°C° 0 mm 1 mps 703 mmHg 86%
    01:00 +19°C° 0 mm 1 mps 702 mmHg 85%
    02:00 +19°C° 0 mm 1 mps 702 mmHg 84%
    03:00 +19°C° 0 mm 1 mps 702 mmHg 83%
    04:00 +19°C° 0 mm 1 mps 702 mmHg 82%
    05:00 +21°C° 0 mm 1 mps 702 mmHg 76%
    06:00 +23°C° 0 mm 1 mps 702 mmHg 70%
    07:00 +24°C° 0 mm 2 mps 703 mmHg 64%
    08:00 +26°C° 0 mm 2 mps 703 mmHg 60%
    09:00 +27°C° 0 mm 3 mps 703 mmHg 57%
    10:00 +28°C° 0 mm 4 mps 703 mmHg 54%
    11:00 +29°C° 0 mm 4 mps 703 mmHg 53%
    12:00 +29°C° 0 mm 4 mps 703 mmHg 52%
    13:00 +30°C° 0 mm 4 mps 703 mmHg 51%
    14:00 +30°C° 0.1 mm 5 mps 703 mmHg 53%
    15:00 +29°C° 0.1 mm 5 mps 703 mmHg 56%
    16:00 +29°C° 0.1 mm 5 mps 702 mmHg 58%
    17:00 +27°C° 0.3 mm 4 mps 702 mmHg 63%
    18:00 +26°C° 0.3 mm 3 mps 702 mmHg 68%
    19:00 +24°C° 0.3 mm 2 mps 701 mmHg 73%
    20:00 +23°C° 0 mm 2 mps 701 mmHg 76%
    21:00 +22°C° 0 mm 1 mps 701 mmHg 80%
    22:00 +21°C° 0 mm 1 mps 701 mmHg 83%
    23:00 +21°C° 0 mm 1 mps 701 mmHg 82%
    Mostrar más